Flag for Nigeria Weather past 2 weeks in Enugu, Nigeria

Now
77 °F

Passing clouds.


Feels Like: 78 °F
Forecast: 78 / 93 °F
Wind: No wind

Location: Malabo/Fernando Poo

Current Time: Feb 27, 2015 at 12:21:42 AM

Latest Report: Feb 26, 2015 at 11:00 PM


Visibility: N/A

Pressure: 29.83 "Hg

Humidity: 89%

Dew point: 73 °F

Location of EnuguLocation

Historic Weather in Enugu — Graph

°F

Enugu temperature yesterday

Maximum temperature yesterday: 86 °F (at 3:00 PM)
Minimum temperature yesterday: 72 °F (at 7:00 AM)
Average temperature yesterday: 81 °F

Past Weeks' High & Low Weather Summary

 TemperatureHumidityPressure
High91 °F (Feb 12, 3:00 PM)100% (Feb 18, 11:00 PM)29.98 "Hg (Feb 18, 11:00 PM)
Low72 °F (Feb 19, 4:00 AM)59% (Feb 12, 3:00 PM)29.74 "Hg (Feb 17, 6:00 PM)
Average82 °F81%29.85 "Hg
* Reported Midnight between Feb 11 and Feb 12 — Feb 26 11:00 PM, Enugu, Weather by CustomWeather, © 2015

Note: Actual official high and low records may vary slightly from our data, if they occured in-between our weather recording intervals... More about our weather records

Advertising

Enugu weather history for previous 24 hours

 ConditionsComfort  
Time TempWeatherWind HumidityBarometerVisibility
11:00 PM
Thu, Feb 26
77 °FPassing clouds.No wind89%29.83 "HgN/A
9:00 PM82 °FPassing clouds.6 mph79%29.83 "HgN/A
8:00 PM82 °FPassing clouds.6 mph79%29.80 "HgN/A
7:00 PM84 °FPassing clouds.6 mph74%29.77 "HgN/A
6:00 PM86 °FPassing clouds.6 mph66%29.77 "HgN/A
5:00 PM86 °FPassing clouds.5 mph66%29.74 "HgN/A
4:00 PM86 °FPassing clouds.No wind66%29.74 "HgN/A
3:00 PM86 °FPartly sunny.5 mph66%29.80 "HgN/A
2:00 PM84 °FPartly sunny.No wind70%29.83 "HgN/A
1:00 PM84 °FBroken clouds.No wind70%29.83 "HgN/A
12:00 PM84 °FThunderstorms. Broken clouds.No wind70%29.86 "HgN/A
11:00 AM84 °FThunderstorms. Broken clouds.No wind70%29.86 "HgN/A
10:00 AM81 °FThunderstorms. Broken clouds.No wind84%29.89 "HgN/A
9:00 AM77 °FThunderstorms. Broken clouds.5 mph94%29.86 "Hg5 mi
8:00 AM73 °FThunderstorms. Broken clouds.9 mph94%29.83 "Hg4 mi
7:00 AM72 °FThunderstorms. Broken clouds.8 mph100%29.83 "Hg4 mi
6:00 AM77 °FThunderstorms. Partly cloudy.No wind94%29.83 "Hg5 mi
2:00 AM79 °FThunderstorms. Passing clouds.8 mph89%29.83 "Hg5 mi
1:00 AM79 °FThunderstorms. Passing clouds.5 mph94%29.83 "Hg5 mi
12:00 AM79 °FPassing clouds.3 mph94%29.83 "Hg5 mi
Weather by CustomWeather, © 2015

See weather overviewHow to use our weather pages